Regional Weather Roundup
Issued by NWS

Home | Current Version | Previous Version | Graphics & Text | Print | Product List | Glossary On
Versions: 1 2 3 4 5 6 7 8 9 10 11 12 13 14 15 16 17 18 19 20 21 22 23 24 25 26 27 28 29 30 31 32 33 34 35 36 37 38 39 40 41 42 43 44 45 46 47 48 49 50
000
ASUS43 KMKX 171411
RWRWI

WISCONSIN REGIONAL WEATHER ROUNDUP
NATIONAL WEATHER SERVICE MILWAUKEE/SULLIVAN WI
900 AM CDT WED SEP 17 2014

NOTE: "FAIR" INDICATES FEW OR NO CLOUDS BELOW 12,000 FEET WITH NO
SIGNIFICANT WEATHER AND/OR OBSTRUCTIONS TO VISIBILITY.

WIZ001-002-006>008-014>016-023>028-171500-
NORTHWEST WISCONSIN

CITY           SKY/WX    TMP DP  RH WIND       PRES   REMARKS
SUPERIOR ARPT  SUNNY     51  46  83 SW5       29.94S
ASHLAND        SUNNY     53  46  77 SW6       29.95S
HAYWARD        SUNNY     51  45  79 SW3       29.96S
SIREN          SUNNY     57  49  76 CALM      29.95F
RICE LAKE      PTSUNNY   49  49  97 CALM      29.98S
LADYSMITH      MOSUNNY   50  47  88 SW3       29.99S
EAU CLAIRE     PTSUNNY   53  47  79 CALM      29.98S
MENOMONIE      CLOUDY    53  49  87 CALM      29.98S
NEW RICHMOND   PTSUNNY   56  49  77 S6        29.96F
OSCEOLA        PTSUNNY   57  53  86 S3        29.98F
$$

WIZ003>005-009-010-017-018-171500-
NORTH CENTRAL WISCONSIN

CITY           SKY/WX    TMP DP  RH WIND       PRES   REMARKS
WOODRUFF       SUNNY     52  46  81 CALM      29.96S
RHINELANDER    SUNNY     51  44  77 SW7       29.97F
EAGLE RIVER    SUNNY     52  43  70 W5        29.96S
LAND O LAKES   PTSUNNY   53  45  75 CALM      29.97S
PHILLIPS       SUNNY     50  45  84 CALM      29.96F
TOMAHAWK       MOSUNNY   50  45  84 CALM      29.98S
MEDFORD        PTSUNNY   51  46  83 SW5       29.98S
MERRILL        PTSUNNY   48  45  89 CALM      29.98S
$$

WIZ029-030-035-036-043>047-171500-
CENTRAL WISCONSIN

CITY           SKY/WX    TMP DP  RH WIND       PRES   REMARKS
WAUSAU         PTSUNNY   50  46  86 S10       29.98S
MOSINEE        NOT AVBL
MARSHFIELD     PTSUNNY   49  46  90 CALM      30.00S
STEVENS POINT  CLOUDY    49  45  84 SW3       30.01S
WAUPACA        MOSUNNY   52  51  95 SW3       30.01S
WAUTOMA        MOSUNNY   50  45  83 CALM      30.03S
WISC RAPIDS    CLOUDY    49  46  90 SW5       30.02S
CAMP DOUGLAS   PTSUNNY   54  54 100 SE3       30.01S
$$

WIZ011>013-019>022-031-037>040-048>050-171500-
NORTHEAST WISCONSIN

CITY           SKY/WX    TMP DP  RH WIND       PRES   REMARKS
ANTIGO         MOSUNNY   51  46  80 W6        29.99R
STURGEON BAY   MOSUNNY   55  46  71 SW10      29.99F
GREEN BAY      SUNNY     54  48  80 SW6       30.01S
MANITOWOC      SUNNY     57  47  69 W6        30.01F
APPLETON       MOSUNNY   54  45  71 SW8       30.01F
CLINTONVILLE   MOSUNNY   52  46  82 SW5       30.00F
OSHKOSH        SUNNY     55  47  74 W7        30.01S
$$

WIZ032>034-041-042-053>061-171500-
SOUTHWEST WISCONSIN

CITY           SKY/WX    TMP DP  RH WIND       PRES   REMARKS
LA CROSSE      CLOUDY    54  49  83 SE6       30.00S
SPARTA         CLOUDY    48  46  93 CALM      30.02S
VIROQUA        CLOUDY    52  47  82 S3        30.00F
BOSCOBEL       CLOUDY    48  46  93 CALM      30.03F FOG
PRAIRIE DU CHI CLOUDY    49  47  95 CALM      30.02S
PLATTEVILLE    FAIR      55  47  76 CALM      30.03S
$$

WIZ056-057-062-063-064-067-068-171500-
SOUTH CENTRAL WISCONSIN

CITY           SKY/WX    TMP DP  RH WIND       PRES   REMARKS
BARABOO/DELLS  CLOUDY    54  46  74 SW3       30.02S
LONE ROCK      CLOUDY    50  45  83 VRB3      30.03F
WATERTOWN      SUNNY     51  47  87 CALM      30.03S
MADISON        MOSUNNY   56  49  77 CALM      30.03S
MIDDLETON      CLOUDY    56  47  72 CALM      30.03S
MONROE         SUNNY     55  45  67 S3        30.02F
JANESVILLE     SUNNY     52  45  76 CALM      30.03F
$$

WIZ051-052-058>065-066-070>072-171500-
SOUTHEAST WISCONSIN

CITY           SKY/WX    TMP DP  RH WIND       PRES   REMARKS
MILWAUKEE      MOSUNNY   57  44  62 W3        30.04F
WAUKESHA       SUNNY     52  46  82 CALM      30.04F
MILWAUKEE/TIMM MOSUNNY   54  45  71 SW5       30.04F
RACINE         MOSUNNY   57  47  69 W5        30.05F
BURLINGTON     SUNNY     48  48 100 CALM      30.03F
KENOSHA        MOSUNNY   55  49  80 W3        30.04F
FOND DU LAC    SUNNY     54  47  77 SW6       30.02S
SHEBOYGAN      SUNNY     56  47  71 SW5       30.02F
WEST BEND      PTSUNNY   54  45  71 CALM      30.03S
JUNEAU         SUNNY     50  46  87 CALM      30.04S
$$

LSZ147-162-171500-
LAKE SUPERIOR

STATION/POSITION TIME  TEMP    WIND        PRES    WAVE
                       AIR SEA DIR/SP/G            HT/PER
                 (UTC) (F)     (DEG/KT/KT) (MB)    (FT/S)
W MID LAKE BUOY  1350   46 46   70/ 12/ 14 1014.0S   2/ 4
DEVILS ISLAND    1400   51     190/  8/ 10 1013.7F
PORT WING        1400   53     360/  4/ 22 1014.9R
SAXON HARBOR     1340   54        CALM     1014.6R
$$

LMZ867-665-643>646-171500-
LAKE MICHIGAN

STATION/POSITION TIME  TEMP    WIND        PRES    WAVE
                       AIR SEA DIR/SP/G            HT/PER
                 (UTC) (F)     (DEG/KT/KT) (MB)    (FT/S)
N MID LAKE BUOY  1350   57 58  240/ 14/ 16 1015.0R   2/ 4
NORTHPORT PIER   1300   58     280/  4/ 10 1015.2S
KEWAUNEE LAKESHO 1300   53     260/  6/  8 1015.0F
SHEBOYGAN LAKESH 1400   56 50  230/  6/  7 1016.8F
PORT WASHINGTON  1340   60     260/  5/  9 1017.3F
ATWATER BUOY     1400   57     240/ 10/ 10 1017.9F
MILWAUKEE LAKESH 1300   53     260/  4/  5   N/A
S MID LAKE BUOY  1350   61 65  240/ 10/ 12 1017.2F   1/ 3
KENOSHA   LAKESH 1400   58     270/  5/  7 1016.9F
$$

TC  - TEMPERATURE IN CELSIUS
VSB - VISIBILITY IN STATUTE MILES
WCI - WIND CHILL INDEX
HX  - HEAT INDEX



USA.gov is the U.S. government's official web portal to all federal, state and local government web resources and services.